Other Public Products
Issued by NWS Grand Forks, ND

Home | Current Version | Previous Version | Graphics & Text | Print | Product List | Glossary On
Versions: 1 2 3 4 5 6 7 8 9 10 11 12 13 14 15 16 17 18 19 20 21 22 23 24 25 26 27 28 29 30 31 32 33 34 35 36 37 38 39 40 41 42 43 44 45 46 47 48 49 50
000
FPUS83 KFGF 180310
OPUFGF
PRAIRIE TO PINES WEATHER ROUNDUP
NATIONAL WEATHER SERVICE EASTERN NORTH DAKOTA/GRAND FORKS ND
1000 PM CDT TUE OCT 17 2017

 **SATELLITE DATA USED TO AUGMENT SKY COVER AT AUTOMATED STATIONS**
 *****  WEATHER ACROSS EASTERN NORTH DAKOTA  *****

CITY           SKY/WX    TMP DP  RH WIND       PRES   REMARKS
GRAND FORKS    FAIR      57  39  51 S13       29.61F
GRAND FORKS AF FAIR      55  34  45 S7        29.60F
GRAND CITY NWS NOT AVBL
BUXTON           N/A     56  42  61 S9          N/A
DEVILS LAKE    FAIR      59  38  45 SW17      29.59F
FARGO          FAIR      62  42  47 S15G25    29.70F
WAHPETON ARPT  NOT AVBL
$$

 *****  WEATHER ACROSS CENTRAL AND WESTERN NORTH DAKOTA  *****

CITY           SKY/WX    TMP DP  RH WIND       PRES   REMARKS
JAMESTOWN      FAIR      54  35  48 S9        29.68F
BISMARCK       FAIR      64  25  22 S9        29.66F
MINOT          FAIR      67  26  21 S18G26    29.51F
MINOT AFB      FAIR      64  26  24 SW17      29.49F
GARRISON         N/A     60  30  32 SW13      29.59F
WILLISTON      FAIR      62  26  25 S10       29.50F
DICKINSON      FAIR      62  24  23 SW18      29.64F
HETTINGER      FAIR      53  23  31 S3        29.73F
$$

 *****  OTHER OBSERVATIONS NORTHEAST NORTH DAKOTA  *****

CITY           SKY/WX    TMP DP  RH WIND       PRES   REMARKS
WALHALLA       FAIR     N/A N/A N/A SW15      29.52F
LANGDON        FAIR      54  34  47 S16       29.56F
CAVALIER       FAIR      59  37  44 S9        29.55F
GRAFTON        FAIR      52  32  46 S10       29.59F
CANDO          FAIR      52  32  46 S12       29.58F
FORT TOTTEN      N/A     60  29  30 S10       29.95S
ROLLA          FAIR      55  30  38 SW13      29.53F
RUGBY          FAIR      57  30  35 S14       29.54F
 ***** THE ABOVE OBSERVATIONS ARE NON NWS ARE NOT QUALITY
        CONTROLLED AND MAY MIS-REPORT RAIN FOR SNOW...
$$

 *****  OTHER OBSERVATIONS SOUTHEAST NORTH DAKOTA *****

CITY           SKY/WX    TMP DP  RH WIND       PRES   REMARKS
COOPERSTOWN    FAIR      61  34  36 SW16      29.66S
VALLEY CITY    FAIR      59  36  41 SW20      29.69F
OAKES          NOT AVBL
GWINNER        CLEAR     55  39  54 SW12      29.74F
SHEYENNE NWR     N/A     55  40  57 S7        29.95S
BUFFALO          N/A     60  31  33 SW13        N/A
WYNDMERE       NOT AVBL
 ***** THE ABOVE OBSERVATIONS ARE NON NWS ARE NOT QUALITY
       CONTROLLED AND MAY MIS-REPORT RAIN FOR SNOW...
$$

  *****  WEATHER ACROSS NORTHERN MINNESOTA  *****

CITY           SKY/WX    TMP DP  RH WIND       PRES   REMARKS
FLAG ISLAND    FAIR      54  46  76 S10       29.60S
WARROAD        FAIR      61  45  55 S10G16    29.62F
ROSEAU         FAIR      57  45  62 S13       29.61F
HALLOCK        FAIR      55  30  38 S10       29.57F
THF RVR FALLS  FAIR      60  41  49 S14       29.66F
HALSTAD        NOT AVBL
FOSSTON        FAIR      61  39  44 S17       29.71S
BAUDETTE       FAIR      58  39  49 S12       29.66F
WASKISH        FAIR      61  39  44 S10G18    29.70S
CROOKSTON      FAIR      61  41  48 S16       29.65F
$$
  *****  WEATHER ACROSS CENTRAL AND WEST MINNESOTA  *****

CITY           SKY/WX    TMP DP  RH WIND       PRES   REMARKS
BEMIDJI        FAIR      58  40  50 S8        29.74S
PARK RAPIDS    FAIR      54  41  61 S8        29.78S
WADENA         FAIR      54  41  62 S5        29.79F
DETROIT LAKES  FAIR      57  41  54 S8        29.77F
MOORHEAD       FAIR      57  43  58 S9        29.73S
FERGUS FALLS   FAIR      57  43  58 S9        29.79S
ELBOW LAKE     FAIR      55  41  60 S8        29.81S
MORRIS MN      FAIR      52  41  66 S10       29.81F
STAPLES        FAIR      54  39  58 S7        29.81S
WHEATON        FAIR      57  41  54 S10       29.80S
$$
  *****  WEATHER ELSEWHERE ACROSS MINNESOTA  *****

CITY           SKY/WX    TMP DP  RH WIND       PRES   REMARKS
DULUTH         FAIR      59  41  51 SW14      29.85F
INTRNTL FALLS  FAIR      59  37  44 S8        29.71F
ELY            FAIR      55  36  47 S7        29.82S
CLOQUET        FAIR      55  37  50 S5        29.85F
BRAINERD       FAIR      56  39  53 S9        29.82F
HIBBING        FAIR      53  36  52 S3        29.81F
ALEXANDRIA     FAIR      61  39  44 S12       29.83F
SAINT CLOUD    FAIR      52  42  69 S8        29.86F
MINNEAPOLIS    FAIR      63  45  51 S7        29.91S
$$

  *****  WEATHER ACROSS SOUTH DAKOTA  *****

CITY           SKY/WX    TMP DP  RH WIND       PRES   REMARKS
SIOUX FALLS    FAIR      61  46  57 S13       29.91R
BROOKINGS      FAIR      59  39  47 S12       29.88F
WATERTOWN      FAIR      56  41  57 S8        29.84F
HURON          FAIR      60  41  49 S13       29.82F
SISSETON         N/A     72  38  29 SW20G30   29.77F
ABERDEEN       FAIR      49  41  74 S8        29.78F
MITCHELL       FAIR      61  41  47 S13       29.86S
PIERRE         FAIR      54  37  52 CALM      29.76F
MOBRIDGE       FAIR      53  43  68 SE3       29.72F
RAPID CITY     FAIR      48  27  44 W7        29.84S
$$

  *****  SOME WEATHER IN NEARBY STATES *****

CITY           SKY/WX    TMP DP  RH WIND       PRES   REMARKS
GLASGOW MT     FAIR      65  26  23 SW14      29.47F
GREAT FALLS MT FAIR      61  23  23 SW30G47   29.71R
CHEYENNE WY    FAIR      49  19  30 SW8       30.12S
SCOTTSBLUFF NE FAIR      49  26  41 N5        29.97S
OMAHA NE       FAIR      57  46  66 S7        30.00S
DES MOINES IA  FAIR      57  46  66 S9        30.05R
DAVENPORT IA   FAIR      57  42  57 S9        30.13S
CHICAGO IL     FAIR      59  41  51 S10       30.15R
EAU CLAIRE WI  FAIR      55  45  68 S7        29.95S
LA CROSSE WI   FAIR      61  47  59 S12       29.99S
$$

  *****  SOME NATIONAL WEATHER *****

CITY           SKY/WX    TMP DP  RH WIND       PRES   REMARKS
LA GUARDIA NY  FAIR      56  37  49 SW10      30.29R
RALEIGH NC     FAIR      45  41  86 CALM      30.35R
ATLANTA GA     FAIR      55  43  63 E7        30.29R
NEW ORLEANS LA FAIR      65  62  90 CALM      30.17R
OKLAHOMA CITY  FAIR      56  46  69 S10       30.12R
ALBUQUERQUE NM FAIR      62  22  21 SE5       30.22S
SALT LAKE CITY MOCLDY    54  33  45 CALM      30.11F
LOS ANGELES CA FAIR      75  55  49 S7        29.91R
BOISE ID       FAIR      49  33  54 CALM      30.08R
SEATTLE WA     CLOUDY    54  40  59 E9        30.11F
$$

*** WEATHER ACROSS MANITOBA...SASKATCHEWAN AND ONTARIO ***
                ***ONTARIO***

CITY           SKY/WX    TMP DP  RH WIND       PRES   REMARKS
GERALDTON      PTCLDY    37  36  93 SE3       29.89F
THUNDER BAY    CLEAR     46  45  93 NE5       29.86F
SIOUX LOOKOUT  CLEAR     52  39  62 S6        29.68F
TORONTO        CLEAR     55  43  62 W7        30.13R
BIG TROUT LK   PTCLDY    37  32  81 SE12G18   29.78S
PICKLE LAKE    NOT AVBL
DRYDEN         CLEAR     55  39  54 S10       29.66F
KENORA         CLEAR     59  39  47 S13       29.60F
$$
                *** MANITOBA***

CITY           SKY/WX    TMP DP  RH WIND       PRES   REMARKS
BRANDON        PTCLDY    59  34  38 SW16      29.41F
DAUPHIN        CLEAR     66  32  28 SW21G29   29.27F
ISLAND LAKE    PTCLDY    43  36  75 SE22      29.50F
PILOT MOUND      N/A     54  32  43 S13         N/A
THE PAS        PTCLDY    46  39  76 SE16      29.11F
THOMPSON       CLOUDY    37  32  81 E9        29.39F
WINNIPEG       CLEAR     59  34  38 S15       29.49F
LYNN LAKE      LGT RAIN  34  34 100 E20       29.24F WCI  22
CHURCHILL      CLOUDY    23  21  93 SE6       29.74S WCI  16
GILLAM         CLOUDY    32  30  93 SE7       29.61F
$$
                ***SASKATCHEWAN***

CITY           SKY/WX    TMP DP  RH WIND       PRES   REMARKS
ESTEVAN        PTCLDY    59  27  29 S17G23    29.41F
KINDERSLEY     LGT RAIN  45  37  76 NW29G43   29.33R
LLOYDMINSTER   LGT RAIN  43  39  87 NW30G40   29.18R
PRINCE ALBERT  PTCLDY    64  30  27 SW15G23   28.93F
REGINA         PTCLDY    59  23  25 S20       29.27F
YORKTON        CLEAR     59  28  31 S15G21    29.24F


USA.gov is the U.S. government's official web portal to all federal, state and local government web resources and services.